DELTA 1 DEB, 17024

Orbit data source: Space-Track

DELTA 1 DEB, 17024 is space debris in LEO originally from a launch on Thu, 14 Jul 1977 UTC launched from the Air Force Eastern Test Range (AFETR). Debris objects in space refer to the collection of defunct objects orbiting the Earth. Examples of debris include non-operational satellites, rocket bodies, and fragments generated from explosions, collisions, or faulty payload assembly.

Loading next visibility...
Identifier
17024, 1977-065FW
Orbit
LEO
Country
Flag of USUS
Related business
Manufacturer
Unknown
Mission
Spacecraft
Bus & Motor
Unknown
Mass
Unknown
Launch date (UTC)
1977-07-14 (48 years ago)
Launch vehicle
Unknown
Launch site
Air Force Eastern Test Range (AFETR)
Object type
Payload
Rocket body
Debris
Shape & HBR
Unknown shape, 0.1 m
Radar Cross Section
Small (<0.1 m²)

Expand to show TLE details & history
Last TLE update: 5 days ago

TLE from 5 days ago
0 DELTA 1 DEB
1 17024U 77065FW  25345.36161829  .00000638  00000-0  13158-2 0  9991
2 17024  29.4364 231.7255 0848242 327.0602  27.9728 12.36440436533354
Epoch: 2025-12-11T08:40Z
TLE epoch observation values (Epoch: 2025-12-11T08:40:43.820Z)
Latitude
-0.00004°
Longitude
21.22415°
Altitude
942.659 km
Speed
7.647 km/s
True Right ascension
15h 26m 54s
True Declination
0° 00' 00"
Sunlit
Object was in daylight at epoch
Visualization orbit readout
Latitude
Unknown
Longitude
Unknown
Altitude
Unknown
Speed
Unknown
Apparent Right ascension
Unknown
Apparent Declination
Unknown
Sunlit
N/A
Visualization observer readout
Local Sidereal Time
02:49:42
Azimuth
Unknown
Elevation
Unknown
Doppler factor
Unknown
Orbital elements
Apogee altitude
2,195.734 km
Perigee altitude
854.924 km
Semi-major axis
7,903.466 km
Eccentricity
0.08482
Inclination
29.4364°
RAAN
231.7255°
Arg. of periapsis
327.0602°
True anomaly
32.9944°
Mean anomaly
27.9728°
Eccentric anomaly
30.4347°
Mean motion
3.08899 °/min
Orbital period
116.54 mins
BSTAR
0.0013158
Loading maneuver chart data...
Computing Atmospheric mass density...

Documentation

Showing up to 5 results
|